Regional Weather Roundup
Issued by NWS

Home | Current Version | Previous Version | Graphics & Text | Print | Product List | Glossary On
Versions: 1 2 3 4 5 6 7 8 9 10 11 12 13 14 15 16 17 18 19 20 21 22 23 24 25 26 27 28 29 30 31 32 33 34 35 36 37 38 39 40 41 42 43 44 45 46 47 48 49 50
000
ASUS43 KMKX 032311
RWRWI

WISCONSIN REGIONAL WEATHER ROUNDUP
NATIONAL WEATHER SERVICE MILWAUKEE/SULLIVAN WI
500 PM CST SAT DEC 03 2016

NOTE: "FAIR" INDICATES FEW OR NO CLOUDS BELOW 12,000 FEET WITH NO
SIGNIFICANT WEATHER AND/OR OBSTRUCTIONS TO VISIBILITY.

WIZ001-002-006>008-014>016-023>028-040000-
NORTHWEST WISCONSIN

CITY           SKY/WX    TMP DP  RH WIND       PRES   REMARKS
SUPERIOR ARPT  CLOUDY    31  22  68 S7        30.23S WCI  24
ASHLAND        CLOUDY    31  25  78 CALM      30.24S
HAYWARD        CLOUDY    30  21  69 S7        30.22S WCI  23
SIREN          CLOUDY    30  22  70 S7        30.23S WCI  23
CUMBERLAND     CLOUDY    28  23  80 S5        30.23S WCI  23
RICE LAKE      CLOUDY    30  22  70 S7        30.25S WCI  23
CHETEK         CLOUDY    29  23  76 S6        30.24S WCI  23
LADYSMITH      CLOUDY    30  25  79 CALM      30.25S
EAU CLAIRE     CLOUDY    30  20  66 S6        30.25F WCI  24
MENOMONIE      CLOUDY    31  22  68 S6        30.26R WCI  25
NEW RICHMOND   CLOUDY    29  20  69 S8        30.24S WCI  21
OSCEOLA        CLOUDY    30  22  71 S10       30.26F WCI  21
$$

WIZ003>005-009-010-017-018-040000-
NORTH CENTRAL WISCONSIN

CITY           SKY/WX    TMP DP  RH WIND       PRES   REMARKS
MANITOWISH WTR CLOUDY    27  22  82 S5        30.20S WCI  22
ARBOR VITAE    CLOUDY    32  26  80 S6        30.20F WCI  26
WOODRUFF       CLOUDY    32  26  80 S6        30.20F WCI  26
RHINELANDER    CLOUDY    28  21  75 CALM      30.22F
EAGLE RIVER    CLOUDY    28  19  69 SW5       30.21S WCI  23
LAND O LAKES   CLOUDY    29  23  78 CALM      30.21F
PHILLIPS       CLOUDY    28  23  82 S7        30.22R WCI  20
TOMAHAWK       CLOUDY    28  20  74 CALM      30.24R
MEDFORD        CLOUDY    28  22  79 S6        30.23R WCI  21
MERRILL        CLOUDY    28  21  74 CALM      30.25R
$$

WIZ029-030-035-036-043>047-040000-
CENTRAL WISCONSIN

CITY           SKY/WX    TMP DP  RH WIND       PRES   REMARKS
WAUSAU         CLOUDY    29  21  72 CALM      30.24R
MOSINEE        CLOUDY    28  23  80 CALM      30.26
MARSHFIELD     CLOUDY    28  21  75 S5        30.24S WCI  23
STEVENS POINT  CLOUDY    28  20  73 CALM      30.27S
WAUPACA        CLOUDY    32  23  69 CALM      30.28S
WAUTOMA        CLOUDY    30  21  69 CALM      30.29S
WISC RAPIDS    CLOUDY    30  22  72 CALM      30.28S
CAMP DOUGLAS   CLOUDY    32  21  65 SW5       30.27S WCI  27
$$

WIZ011>013-019>022-031-037>040-048>050-040000-
NORTHEAST WISCONSIN

CITY           SKY/WX    TMP DP  RH WIND       PRES   REMARKS
ANTIGO         CLOUDY    27  21  80 CALM      30.24R
SHAWANO        CLOUDY    32  23  68 CALM      30.28S
OCONTO         CLOUDY    32  23  69 SW3       30.28S
STURGEON BAY   CLOUDY    31  25  78 S7        30.28S WCI  24
GREEN BAY      CLOUDY    33  24  69 W5        30.28F WCI  29
MANITOWOC      CLOUDY    33  23  66 W5        30.29F WCI  29
APPLETON       CLOUDY    30  21  69 VRB3      30.26S
CLINTONVILLE   CLOUDY    32  25  74 CALM      30.27S
OSHKOSH        CLOUDY    30  22  72 S3        30.29S
$$

WIZ032>034-041-042-053>061-040000-
SOUTHWEST WISCONSIN

CITY           SKY/WX    TMP DP  RH WIND       PRES   REMARKS
LA CROSSE      CLOUDY    33  23  66 S3        30.27F
SPARTA         CLOUDY    32  24  73 CALM      30.28S
VIROQUA        CLOUDY    31  25  81 S3        30.25S
BOSCOBEL       CLOUDY    34  25  69 CALM      30.29S
PRAIRIE DU CHI CLOUDY    34  26  71 E3        30.27F
PLATTEVILLE    MOCLDY    33  28  81 CALM      30.27F
$$

WIZ056-057-062-063-064-067-068-040000-
SOUTH CENTRAL WISCONSIN

CITY           SKY/WX    TMP DP  RH WIND       PRES   REMARKS
REEDSBURG      CLOUDY    31  25  77 S3        30.28S
BARABOO/DELLS  CLOUDY    31  23  71 CALM      30.27F
LONE ROCK      CLOUDY    33  25  72 CALM      30.29F
MINERAL POINT  CLOUDY    32  28  86 CALM      30.26S
MADISON        CLOUDY    32  23  69 CALM      30.29S
MIDDLETON      CLOUDY    33  26  77 CALM      30.28F
WATERTOWN      CLOUDY    31  25  78 CALM      30.29S
MONROE         CLOUDY    32  27  80 CALM      30.27F
JANESVILLE     CLOUDY    34  25  69 CALM      30.29F
$$

WIZ051-052-058>065-066-070>072-040000-
SOUTHEAST WISCONSIN

CITY           SKY/WX    TMP DP  RH WIND       PRES   REMARKS
MILWAUKEE      CLOUDY    33  20  58 NW9       30.31F WCI  25
WAUKESHA       CLOUDY    28  21  74 CALM      30.31F
MILWAUKEE/TIMM CLOUDY    30  19  64 CALM      30.31F
RACINE         CLOUDY    32  22  66 N3        30.32F
BURLINGTON     CLOUDY    31  25  78 CALM      30.31R
KENOSHA        CLOUDY    31  23  72 W3        30.31F
FOND DU LAC    CLOUDY    31  19  61 SW7       30.29S WCI  24
SHEBOYGAN      CLOUDY    31  22  69 SW3       30.29F
WEST BEND      CLOUDY    30  23  74 CALM      30.29F
JUNEAU         CLOUDY    30  23  76 CALM      30.30S
$$

LSZ147-162-040000-
LAKE SUPERIOR

STATION/POSITION TIME  TEMP    WIND        PRES    WAVE
                       AIR SEA DIR/SP/G            HT/PER
                 (UTC) (F)     (DEG/KT/KT) (MB)    (FT/S)
DEVILS ISLAND    2300   33     170/  4/  5 1024.7F
PORT WING        2230   32     200/  5/  6 1023.7F
SAXON HARBOR     2230   32     160/  2/  4 1024.0S
$$

LMZ867-665-643>646-040000-
LAKE MICHIGAN

STATION/POSITION TIME  TEMP    WIND        PRES    WAVE
                       AIR SEA DIR/SP/G            HT/PER
                 (UTC) (F)     (DEG/KT/KT) (MB)    (FT/S)
CHAMBERS ISLAND  2240   35      CALM  /  3 1024.4F
NORTHPORT PIER   2240   36      CALM  /  3 1024.7S
SISTER BAY       2224   36     210/  8/ 10   N/A
ALGOMA LAKESHORE 2251          240/  8/  9   N/A
KEWAUNEE LAKESHO 2248   32     250/  2/  5 1025.2R
SHEBOYGAN LAKESH 2300   32     240/  5/  6 1026.6F
PORT WASHINGTON  2230   33     280/  4/  7 1027.1F
MILWAUKEE LAKESH 2250   32     310/  7/  9   N/A
S MID LAKE BUOY  2250   35 48  270/  8/ 14 1026.5F   1/ 3
KENOSHA   LAKESH 2300   32     290/  3/  5 1026.4
$$

TC  - TEMPERATURE IN CELSIUS
VSB - VISIBILITY IN STATUTE MILES
WCI - WIND CHILL INDEX
HX  - HEAT INDEX





USA.gov is the U.S. government's official web portal to all federal, state and local government web resources and services.